Location: Arthez
(43.0833°N, 0.2500°W)
Time: 01:03:55
(UTC+00:00)

NOSS 3-1 (A) - Pass Details

Date: 02 June 2022
Orbit: 711 x 1501 km, 63.4° (Epoch: 21 May)

Event Time Altitude Azimuth Distance (km) Brightness Sun altitude
Rises 23:11:02 0° 320° (NW) 3,998 7.7 -23.7°
Reaches altitude 10° 23:13:37 10° 317° (NW) 3,140 6.9 -23.8°
Maximum altitude 23:21:09 59° 241° (WSW) 1,536 4.3 -24.1°
Enters shadow 23:24:09 41° 185° (S) 1,938 4.5 -24.1°
